This is the latest recevied weather packets stored in our database for station/object ac2ev. If no packets are shown the sender has not sent any weather packets the latest 10 day(s).
| Time | Temp. | Humidity | Pressure | Rain* | Wind** | Luminosity | Snow |
|---|---|---|---|---|---|---|---|
| 1787767323 | 27.22° C | 48% | 1015.5 hPa | 0 mm | - | - | - |
| 1787767024 | 27.22° C | 47% | 1015.5 hPa | 0 mm | - | - | - |
| 1787766722 | 27.22° C | 45% | 1015.6 hPa | 0 mm | - | - | - |
| 1787766423 | 27.22° C | 49% | 1015.7 hPa | 0 mm | - | - | - |
| 1787766123 | 26.67° C | 50% | 1015.6 hPa | 0 mm | - | - | - |
| 1787765822 | 26.67° C | 48% | 1015.7 hPa | 0 mm | - | - | - |
| 1787765630 | 26.67° C | 50% | 1015.7 hPa | 0 mm | - | - | - |
| 1787765222 | 26.67° C | 52% | 1015.8 hPa | 0 mm | - | - | - |
| 1787765026 | 26.11° C | 50% | 1015.8 hPa | 0 mm | - | - | - |
| 1787764622 | 26.67° C | 52% | 1015.8 hPa | 0 mm | - | - | - |
| 1787764323 | 26.67° C | 53% | 1015.9 hPa | 0 mm | - | - | - |
| 1787764022 | 26.67° C | 53% | 1015.9 hPa | 0 mm | - | - | - |
| 1787763722 | 26.11° C | 52% | 1016.1 hPa | 0 mm | - | - | - |
| 1787763423 | 26.11° C | 54% | 1016.2 hPa | 0 mm | - | - | - |
| 1787763122 | 25.56° C | 54% | 1016.2 hPa | 0 mm | - | - | - |
| 1787762823 | 25.56° C | 53% | 1016.3 hPa | 0 mm | - | - | - |
| 1787762523 | 26.11° C | 54% | 1016.3 hPa | 0 mm | - | - | - |
| 1787762223 | 26.11° C | 53% | 1016.3 hPa | 0 mm | - | - | - |
| 1787761923 | 26.11° C | 55% | 1016.3 hPa | 0 mm | - | - | - |
| 1787761622 | 25.56° C | 58% | 1016.3 hPa | 0 mm | - | - | - |
| 1787761322 | 25.56° C | 58% | 1016.4 hPa | 0 mm | - | - | - |
| 1787761023 | 25° C | 58% | 1016.5 hPa | 0 mm | - | - | - |
| 1787760722 | 25° C | 59% | 1016.5 hPa | 0 mm | - | - | - |
| 1787760422 | 25° C | 60% | 1016.5 hPa | 0 mm | - | - | - |
| 1787760122 | 25° C | 60% | 1016.5 hPa | 0 mm | - | - | - |
* Rain latest hour (hover to see other rain measurements)
** Current wind speed in m/s (hover to see current wind gust speed)